STARLINK-35756, 67175

Orbit data source: Space-Track

STARLINK-35756, 67175 is a payload satellite owned by SpaceX/Seattle (US) in LEO that was launched on Wed, 17 Dec 2025 UTC via an FALCON 9 launch vehicle from the Air Force Eastern Test Range (AFETR). Payload-class satellites include a variety of spacecraft equipped with specific instruments for various scientific and technological missions. These include communications satellites like Starlink; space stations such as the ISS; scientific satellites like the Hubble; Earth observation satellites from companies like Planet Labs, Umbra, and HawkEye 360; GPS; miniature CubeSats for education and research; and military/defense satellites.

Loading next visibility...
Identifier
67175, 2025-303N
Orbit
LEO
Country
Flag of USUS
Related business
Manufacturer
SpaceX/Seattle
Mission
Operational Commercial Communications
Bus & Motor
STARLINK V2MO, Unknown motor
Mass
575 kg wet, ~530 kg dry
Launch date (UTC)
2025-12-17 (6 months ago)
Launch vehicle
FALCON 9
Launch site
Air Force Eastern Test Range (AFETR)
Object type
Payload
Rocket body
Debris
Shape & HBR
Box + 2 Pan, 17.7 m
Radar Cross Section
36.964 m², Large (>1 m²)

Expand to show TLE details & history
Last TLE update: 17 hours ago

TLE from 17 hours ago
0 STARLINK-35756
1 67175U 25303N   26171.14681397  .00008810  00000-0  32918-3 0  9998
2 67175  43.0009  92.1781 0001289 267.0772  92.9933 15.27590504 28400
Epoch: 2026-06-20T03:31Z
TLE epoch observation values (Epoch: 2026-06-20T03:31:24.727Z)
Latitude
0.00006°
Longitude
130.95952°
Altitude
482.839 km
Speed
7.626 km/s
True Right ascension
06h 08m 42s
True Declination
0° 00' 00"
Sunlit
Object was in daylight at epoch
Visualization orbit readout
Latitude
Unknown
Longitude
Unknown
Altitude
Unknown
Speed
Unknown
Apparent Right ascension
Unknown
Apparent Declination
Unknown
Sunlit
N/A
Visualization observer readout
Local Sidereal Time
07:13:01
Azimuth
Unknown
Elevation
Unknown
Doppler factor
Unknown
Orbital elements
Apogee altitude
485.847 km
Perigee altitude
484.078 km
Semi-major axis
6,863.1 km
Eccentricity
0.00013
Inclination
43.0009°
RAAN
92.1781°
Arg. of periapsis
267.0772°
True anomaly
93.00805°
Mean anomaly
92.9933°
Eccentric anomaly
93.00068°
Mean motion
3.81736 °/min
Orbital period
94.31 mins
BSTAR
0.00032918
Loading maneuver chart data...
Computing Atmospheric mass density...
Loading historical data...
Loading historical data...
Loading historical data...
Loading historical data...
Loading historical data...
Loading historical data...
Loading historical data...

Documentation

Showing up to 5 results
|